Date String (YYYY-MM-DD hh:mm:ss) UTC,Instrument flags,Ambient pressure (hPa),Sample flow (lpm),Bypass flow (lpm),Sample temperature (°C),Ambient temperature (°C),ASC tube jacket temperature (°C),LED temperature (°C),Box temperature (°C),Sample RH (%),Span deviation,Mass concentration (μg/m³),Mass concentration (μg/m³),Mass concentration (μg/m³)
DateTimeUTC,F1_M11,P_M11,Q1_M11,Q2_M11,T1_M11,T2_M11,T3_M11,T4_M11,T5_M11,U1_M11,ZSPAN_M11,X0_M11,X2_M11,X1_M11
2021-10-25 10:00:00,,0822.1,5.02,0.00,28.5,27.5,00.0,37.6,30.2,12.1,0000.0,0008.71,0002.90,0001.54
2021-10-25 10:01:00,,0822.3,4.99,0.00,28.4,27.5,00.0,37.6,30.2,12.1,0000.0,0009.49,0002.89,0001.54
2021-10-25 10:02:00,,0822.5,5.00,0.00,28.4,27.5,00.0,37.6,30.2,12.1,0000.0,0009.68,0002.91,0001.54
2021-10-25 10:03:00,,0822.6,5.00,0.00,28.4,27.5,00.0,37.6,30.2,12.2,0000.0,0009.87,0003.02,0001.55
2021-10-25 10:04:00,,0822.6,5.00,0.00,28.4,27.5,00.0,37.5,30.1,12.1,0000.0,0010.55,0003.08,0001.56
2021-10-25 10:05:00,,0822.5,5.00,0.00,28.4,27.5,00.0,37.5,30.2,12.1,0000.0,0010.67,0003.15,0001.56
2021-10-25 10:06:00,,0822.4,4.99,0.00,28.4,27.5,00.0,37.5,30.2,12.1,0000.0,0010.66,0003.18,0001.56
2021-10-25 10:07:00,,0822.4,4.99,0.00,28.4,27.5,00.0,37.5,30.2,12.1,0000.0,0010.28,0003.16,0001.57
2021-10-25 10:08:00,,0822.4,5.01,0.00,28.4,27.5,00.0,37.5,30.2,12.1,0000.0,0010.20,0003.16,0001.57
2021-10-25 10:09:00,,0822.4,4.99,0.00,28.4,27.5,00.0,37.5,30.2,12.1,0000.0,0010.15,0003.18,0001.57
2021-10-25 10:10:00,,0822.4,4.99,0.00,28.4,27.5,00.0,37.5,30.2,12.2,0000.0,0010.26,0003.16,0001.57
2021-10-25 10:11:00,,0822.4,5.00,0.00,28.4,27.5,00.0,37.5,30.2,12.2,0000.0,0009.93,0003.13,0001.57
2021-10-25 10:12:00,,0822.4,4.99,0.00,28.4,27.5,00.0,37.5,30.2,12.1,0000.0,0009.11,0003.12,0001.56
2021-10-25 10:13:00,,0822.4,5.00,0.00,28.4,27.5,00.0,37.5,30.2,12.1,0000.0,0009.01,0003.12,0001.55
2021-10-25 10:14:00,,0822.3,5.01,0.00,28.4,27.5,00.0,37.5,30.2,12.1,0000.0,0009.01,0003.13,0001.54
2021-10-25 10:15:00,,0822.3,5.01,0.00,28.4,27.5,00.0,37.5,30.2,12.0,0000.0,0008.55,0003.13,0001.53
2021-10-25 10:16:00,,0822.3,5.01,0.00,28.4,27.5,00.0,37.5,30.2,12.0,0000.0,0008.56,0003.01,0001.53
2021-10-25 10:17:00,,0822.3,4.98,0.00,28.4,27.5,00.0,37.5,30.1,12.0,0000.0,0008.42,0002.88,0001.52
2021-10-25 10:18:00,,0822.2,5.01,0.00,28.4,27.5,00.0,37.5,30.1,12.0,0000.0,0008.46,0002.92,0001.51
2021-10-25 10:19:00,,0822.1,5.01,0.00,28.4,27.4,00.0,37.5,30.1,12.0,0000.0,0008.37,0002.88,0001.51
2021-10-25 10:20:00,,0822.0,5.00,0.00,28.4,27.4,00.0,37.5,30.1,11.9,0000.0,0008.26,0002.85,0001.50
2021-10-25 10:21:00,,0822.1,4.99,0.00,28.4,27.4,00.0,37.5,30.1,11.9,0000.0,0007.84,0002.81,0001.49
2021-10-25 10:22:00,,0822.2,4.99,0.00,28.4,27.5,00.0,37.5,30.2,11.9,0000.0,0008.21,0002.89,0001.49
2021-10-25 10:23:00,,0822.3,5.00,0.00,28.4,27.5,00.0,37.5,30.2,11.9,0000.0,0008.39,0002.98,0001.49
2021-10-25 10:24:00,,0822.4,5.00,0.00,28.4,27.5,00.0,37.5,30.2,12.1,0000.0,0008.73,0003.03,0001.52
2021-10-25 10:25:00,,0822.5,5.00,0.00,28.3,27.4,00.0,37.5,30.1,12.1,0000.0,0009.40,0003.07,0001.54
2021-10-25 10:26:00,,0822.4,5.00,0.00,28.3,27.4,00.0,37.5,30.0,12.1,0000.0,0009.41,0003.04,0001.56
2021-10-25 10:27:00,,0822.5,5.00,0.00,28.2,27.3,00.0,37.4,29.9,12.2,0000.0,0009.98,0003.10,0001.59
2021-10-25 10:28:00,,0822.5,5.00,0.00,28.2,27.2,00.0,37.4,29.9,12.3,0000.0,0010.82,0003.14,0001.61
2021-10-25 10:29:00,,0822.4,4.99,0.00,28.2,27.2,00.0,37.4,29.8,12.3,0000.0,0011.32,0003.19,0001.64
2021-10-25 10:30:00,,0822.4,5.01,0.00,28.1,27.2,00.0,37.4,29.8,12.3,0000.0,0011.36,0003.18,0001.66
2021-10-25 10:31:00,,0822.4,5.00,0.00,28.1,27.2,00.0,37.3,29.8,12.3,0000.0,0011.99,0003.22,0001.67
2021-10-25 10:32:00,,0822.4,5.00,0.00,28.1,27.1,00.0,37.3,29.8,12.3,0000.0,0012.14,0003.24,0001.69
2021-10-25 10:33:00,,0822.4,5.00,0.00,28.1,27.1,00.0,37.3,29.8,12.3,0000.0,0011.90,0003.25,0001.70
2021-10-25 10:34:00,,0822.4,4.99,0.00,28.0,27.1,00.0,37.3,29.8,12.3,0000.0,0011.47,0003.22,0001.73
2021-10-25 10:35:00,,0822.4,4.99,0.00,28.0,27.1,00.0,37.3,29.7,12.4,0000.0,0011.19,0003.18,0001.72
2021-10-25 10:36:00,,0822.4,4.99,0.00,28.0,27.0,00.0,37.2,29.7,12.4,0000.0,0010.29,0003.14,0001.71
2021-10-25 10:37:00,,0822.4,4.99,0.00,28.0,27.0,00.0,37.2,29.7,12.4,0000.0,0010.09,0003.12,0001.71
2021-10-25 10:38:00,,0822.4,5.00,0.00,28.0,27.0,00.0,37.2,29.7,12.4,0000.0,0009.71,0003.10,0001.70
2021-10-25 10:39:00,,0822.6,5.00,0.00,27.9,27.0,00.0,37.2,29.7,12.4,0000.0,0009.36,0003.14,0001.70
2021-10-25 10:40:00,,0822.6,4.99,0.00,27.9,27.0,00.0,37.1,29.7,12.5,0000.0,0008.99,0003.12,0001.70
2021-10-25 10:41:00,,0822.7,5.00,0.00,27.9,27.0,00.0,37.1,29.7,12.5,0000.0,0009.45,0003.14,0001.71
2021-10-25 10:42:00,,0822.7,5.01,0.00,27.9,27.0,00.0,37.1,29.7,12.6,0000.0,0009.28,0003.15,0001.72
2021-10-25 10:43:00,,0822.8,5.00,0.00,27.9,27.0,00.0,37.1,29.7,12.6,0000.0,0009.13,0003.15,0001.74
2021-10-25 10:44:00,,0822.8,4.99,0.00,27.9,27.1,00.0,37.1,29.7,12.6,0000.0,0008.90,0003.13,0001.74
2021-10-25 10:45:00,,0822.7,5.00,0.00,28.0,27.1,00.0,37.1,29.7,12.5,0000.0,0008.93,0003.15,0001.75
2021-10-25 10:46:00,,0822.6,5.00,0.00,28.0,27.1,00.0,37.1,29.8,12.5,0000.0,0008.92,0003.18,0001.77
2021-10-25 10:47:00,,0822.5,4.99,0.00,28.0,27.1,00.0,37.1,29.8,12.6,0000.0,0008.94,0003.19,0001.78
2021-10-25 10:48:00,,0822.5,4.99,0.00,28.0,27.1,00.0,37.1,29.8,12.7,0000.0,0009.74,0003.23,0001.80
2021-10-25 10:49:00,,0822.5,4.98,0.00,28.0,27.0,00.0,37.1,29.7,12.7,0000.0,0009.91,0003.31,0001.83
2021-10-25 10:50:00,,0822.6,5.01,0.00,27.9,27.0,00.0,37.1,29.7,12.9,0000.0,0009.24,0003.33,0001.85
2021-10-25 10:51:00,,0822.7,5.00,0.00,27.9,26.9,00.0,37.0,29.6,12.9,0000.0,0009.58,0003.40,0001.88
2021-10-25 10:52:00,,0822.7,4.99,0.00,27.8,26.9,00.0,37.0,29.5,12.9,0000.0,0009.33,0003.43,0001.89
2021-10-25 10:53:00,,0822.8,5.01,0.00,27.8,26.9,00.0,37.0,29.5,12.9,0000.0,0009.81,0003.43,0001.89
2021-10-25 10:54:00,,0822.8,5.00,0.00,27.8,26.9,00.0,37.0,29.5,12.9,0000.0,0009.75,0003.41,0001.89
2021-10-25 10:55:00,,0822.8,5.01,0.00,27.8,26.9,00.0,37.0,29.5,12.9,0000.0,0009.76,0003.42,0001.90
2021-10-25 10:56:00,,0822.7,5.00,0.00,27.8,26.9,00.0,37.0,29.5,12.9,0000.0,0009.76,0003.43,0001.92
2021-10-25 10:57:00,,0822.6,5.01,0.00,27.8,26.9,00.0,37.0,29.6,12.8,0000.0,0009.71,0003.41,0001.93
2021-10-25 10:58:00,,0822.6,5.00,0.00,27.8,26.9,00.0,36.9,29.6,12.8,0000.0,0010.44,0003.42,0001.93
2021-10-25 10:59:00,,0822.4,4.99,0.00,27.8,26.9,00.0,36.9,29.6,13.1,0000.0,0010.65,0003.38,0001.93
